[Iaude] MPEC P09: 2024 OY1 [a=2.27,e=0.57,i=10.2,H=26.0]
    mpec at cfa.harvard.edu 
    mpec at cfa.harvard.edu
       
    Thu Aug  1 06:56:00 EDT 2024
    
    
  
M.P.E.C. 2024-P09                                Issued 2024 August 1, 10:54 UT
     The Minor Planet Electronic Circulars contain information on unusual
         minor planets, routine data on comets and natural satellites,
         and occasional editorial announcements.  They are published
    on behalf of Division F of the International Astronomical Union by the
          Minor Planet Center, Smithsonian Astrophysical Observatory,
                          Cambridge, MA 02138, U.S.A.
			  
             Prepared using the Tamkin Foundation Computer Network
                              MPC at CFA.HARVARD.EDU
            URL https://www.minorplanetcenter.net/    ISSN 1523-6714
                                    2024 OY1                                    
Observations:
     K24O01Y* C2024 07 29.49188422 29 12.278+05 51 32.84         20.93wXEP009F52
     K24O01Y  C2024 07 29.50388522 29 08.989+05 53 26.67         20.91wXEP009F52
     K24O01Y  C2024 07 29.51595322 29 05.693+05 55 20.50         20.87wXEP009F52
     K24O01Y  C2024 07 29.52799722 29 02.420+05 57 13.72         20.90wXEP009F52
     K24O01Y  C2024 07 29.58663322 28 46.781+06 06 17.40         21.12GVEP009F52
     K24O01Y  C2024 07 29.58728622 28 46.588+06 06 23.95         21.04GVEP009F52
     K24O01Y 3C2024 07 30.59088422 25 49.850+08 23 06.28         21.06GVEP009T14
     K24O01Y 3C2024 07 30.59186022 25 49.639+08 23 13.26         21.22GVEP009T14
     K24O01Y 3C2024 07 30.59322022 25 49.348+08 23 22.98         21.04GVEP009T14
     K24O01Y !C2024 07 31.40384 22 23 54.71 +09 51 45.6          20.3 GVEP009673
     K24O01Y !C2024 07 31.40659 22 23 54.18 +09 52 02.3                VEP009673
     K24O01Y !C2024 08 01.34095 22 21 58.23 +11 16 41.5          20.6 GVEP009673
     K24O01Y !C2024 08 01.34594 22 21 57.39 +11 17 05.2                VEP009673
Observer details:
673 Table Mountain Observatory, Wrightwood.  Observer J. Pittichova.  1.0-m
    f/15 reflector + CCD.
F52 Pan-STARRS 2, Haleakala.  Observers J. Herman, T. Lowe, P. Minguez, A.
    Schultz, I. Smith.  Measurers K. Chambers, T. de Boer, J. Fairlamb, H.
    Gao, M. Huber, C.-C. Lin, E. Magnier, Y. Ramanjooloo, R. Wainscoat, R.
    Weryk.  1.8-m Ritchey-Chretien + CCD.
T14 Canada-France-Hawaii Telescope, Maunakea.  Observers R. Wainscoat, J.
    Silva, V. Khatu.  Measurers R. Weryk, R. Wainscoat.  3.6-m f/4.1 reflector
    + CCD.
Orbital elements:
2024 OY1                                                 Earth MOID = 0.0162 AU
Epoch 2024 Oct. 17.0 TT = JDT 2460600.5                 Veres                   
M  31.43070              (2000.0)            P               Q                  
n   0.28855688     Peri.  327.99288     +0.04877117     +0.98807684             
a   2.2680281      Node   304.40661     -0.87502211     -0.02823235             
e   0.5670850      Incl.   10.19500     -0.48161985     +0.15135090             
P   3.42           H   26.01          G   0.15           U   8                  
Residuals in seconds of arc
240729 F52  0.2+  0.2-    240729 F52  0.0   0.2+    240731 673  0.1-  0.0
240729 F52  0.0   0.0     240730 T14  0.0   0.0     240801 673  0.1+  0.6+
240729 F52  0.1-  0.0     240730 T14  0.0   0.0     240801 673  0.2-  0.5-
240729 F52  0.1-  0.1+    240730 T14  0.0   0.0
240729 F52  0.3+  0.3-    240731 673  0.0   0.2-
Ephemeris:
2024 OY1                 a,e,i = 2.27, 0.57, 10                  q = 0.9819
Date    TT    R. A. (2000) Decl.     Delta      r    Elong.  Phase     V
2024 07 02    09 51 34.6 -31 56 46   0.1288  0.9820    70.8   102.1    25.2
...
2024 07 17    09 17 42.2 -49 44 00   0.03885 1.0062    73.8   104.1    22.8
...
2024 07 25    23 00 20.1 -19 35 20   0.02269 1.0337   141.9    37.4    19.4
...
2024 07 31    22 24 52.4 +09 10 30   0.05585 1.0600   142.5    35.6    21.3
2024 08 01    22 22 37.0 +10 48 36   0.06195 1.0648   142.5    35.5    21.6
2024 08 02    22 20 41.5 +12 08 02   0.06812 1.0697   142.5    35.2    21.8
...
2024 08 08    22 12 58.2 +16 29 51   0.1060  1.1016   144.1    32.7    22.7
...
2024 08 16    22 07 10.0 +18 16 37   0.1587  1.1495   147.4    28.3    23.6
...
2024 08 31    22 02 01.3 +17 44 14   0.2664  1.2513   152.2    22.1    24.7
M. P. C. Staff               (C) Copyright 2024 MPC           M.P.E.C. 2024-P09
    
    
More information about the Iaude
mailing list